Regional Weather Roundup
Issued by NWS Lake Charles, LA

Home | Current Version | Previous Version | Text Only | Print | Product List | Glossary On
Versions: 1 2 3 4 5 6 7 8 9 10 11 12 13 14 15 16 17 18 19 20 21 22 23 24 25 26 27
000
ASUS44 KLCH 241710
RWRLCH
REGIONAL WEATHER ROUNDUP
NATIONAL WEATHER SERVICE LAKE CHARLES LA
1200 PM CDT SAT JUN 24 2017

Note: "fair" indicates few or no clouds below 12,000 feet with no
significant weather and/or obstructions to visibility.


ACROSS SOUTHEAST TEXAS

CITY           SKY/WX    TMP DP  RH WIND       PRES   REMARKS
BEAUMONT       PTSUNNY   86  75  69 S6        30.04R
BEAUMONT CITY  PTSUNNY  N/A N/A N/A MISG      30.05F
ORANGE         CLOUDY    87  77  72 S9        30.06S
JASPER         RAIN      77  75  93 CALM      30.10S
$$

ACROSS CENTRAL LOUISIANA

CITY           SKY/WX    TMP DP  RH WIND       PRES   REMARKS
LEESVILLE      CLOUDY    83  76  80 NW15G28   30.04F
FULLERTON      FAIR      87  76  69 CALM      30.01F
ALEXANDRIA INT CLOUDY    82  75  79 VRB7      30.05F
ESLER FIELD    CLOUDY    81  75  82 VRB5      30.07F
DERIDDER       PTSUNNY   87  75  66 S8        30.06F
OAKDALE        CLOUDY    87  76  69 CALM      30.05S
OPELOUSAS      FAIR      87  76  69 CALM      30.04F
$$

ACROSS SOUTHWEST AND SOUTH CENTRAL LOUISIANA

CITY           SKY/WX    TMP DP  RH WIND       PRES   REMARKS
SULPHUR        PTSUNNY   88  77  69 SW6       30.06R
LAKE CHARLES   MOSUNNY   89  77  67 VRB5      30.05R HX 101
CHENNAULT INT  NOT AVBL
CAMERON PHI    MOSUNNY   84  77  79 SW8       30.05R
DEQUINCY       FAIR      84  75  74 W5        30.06S
JENNINGS       PTSUNNY  N/A N/A N/A NW10      30.05S
LAFAYETTE      TSTM      81  77  88 E5        30.04S FOG
NEW IBERIA     MOSUNNY   89  75  63 SW8       30.04S
ABBEVILLE      FAIR      88  79  74 SW5       30.04F HX 102
PATTERSON      MOSUNNY   88  78  72 SW7       30.05S HAZE    HX 101
SALT POINT       N/A     87  78  74 VRB5      30.03S HX 100
$$

SELECTED SITES ACROSS THE REGION

CITY           SKY/WX    TMP DP  RH WIND       PRES   REMARKS
HOUSTON BUSH   RAIN      76  74  93 W3        30.07F FOG
HOUSTON HOBBY  PTSUNNY   77  74  90 NW5       30.05F
GALVESTON      PTSUNNY   86  78  77 S5        30.06R
COLLEGE STAT   PTSUNNY   81  70  69 N22G30    30.10R
CONROE         CLOUDY    77  74  90 S5        30.08F
HUNTSVILLE     LGT RAIN  77  69  76 VRB5      30.12R
LUFKIN         CLOUDY    80  72  76 NW8       30.09F
SHREVEPORT     CLOUDY    77  72  84 N9        30.10S
MONROE         CLOUDY    83  73  72 N8        30.09R
NATCHEZ MS     MOSUNNY   82  72  71 VRB3      30.09S
BATON ROUGE    MOSUNNY   87  76  69 W7        30.04F
N.O. INTL ARPT PTSUNNY   89  78  70 NW7       30.04S HX 103
SLIDELL        MOSUNNY   90  75  61 VRB5      30.04R HX 100
$$

MARINE REPORTS

STATION/POSITION TIME  SKY/WX   TEMP    WIND        PRES    VSBY
                                AIR SEA DIR/SP/G
                 (UTC)          (F)     (DEG/KT/KT) (MB)    (MI)
BUOY 30 S HIGH I 1550            83 83  150/  6/  8 1017.3
WVE H/P(F/S)=  3/ 7

SEA RIM ST PARK  1700            84     200/  8/  9 1018.0R
PORT ARTHUR      1648            85 83  200/  5/  9 1017.8R
SABINE PASS N    1648            85 85  180/  7/ 11 1019.0R
TEXAS POINT      NOT AVBL
CALCASIEU PASS   1648            82 84  220/  7/  8   N/A
LK CHARLES BEACH 1648            84 81              1018.1R
MARSH ISLAND     1600            86                   N/A
FRESH WATER LOCK 1648            82 85  160/  7/  8 1017.7R
AMERADA PASS     1648            83 83  180/  3/  5 1017.5S
$$




USA.gov is the U.S. government's official web portal to all federal, state and local government web resources and services.